Flag for Canada Weather past 2 weeks in Gander, Newfoundland and Labrador, Canada

Now
30 °F

Partly sunny.


Feels Like: 21 °F
Forecast: 21 / 34 °F
Wind: 10 mph from North

Location: Gander Int. Airport

Current Time: Apr 19, 2015 at 3:55:34 PM

Latest Report: Apr 19, 2015 at 3:30 PM


Visibility: 20 mi

Pressure: 30.08 "Hg

Humidity: 59%

Dew point: 18 °F

Location of GanderLocation

Historic Weather in Gander — Graph

°F

Gander temperature yesterday

Maximum temperature yesterday: 32 °F (at 12:30 AM)
Minimum temperature yesterday: 25 °F (at 9:30 PM)
Average temperature yesterday: 30 °F

Past Weeks' High & Low Weather Summary

 TemperatureHumidityPressure
High50 °F (Apr 14, 3:30 PM)100% (Apr 4, 10:15 PM)30.49 "Hg (Apr 4, 10:15 PM)
Low9 °F (Apr 9, 3:30 AM)30% (Apr 13, 1:30 PM)28.93 "Hg (Apr 5, 4:23 AM)
Average28 °F72%29.94 "Hg
* Reported Apr 4 2:30 PM — Apr 19 2:30 PM, Gander, Weather by CustomWeather, © 2015

Note: Actual official high and low records may vary slightly from our data, if they occured in-between our weather recording intervals... More about our weather records

Advertising

Gander weather history for previous 24 hours

 ConditionsComfort  
Time TempWeatherWind HumidityBarometerVisibility
2:30 PM
Sun, Apr 19
32 °FPartly sunny.7 mph55%30.09 "Hg20 mi
1:30 PM30 °FSnow flurries. Partly sunny.12 mph59%30.09 "Hg20 mi
12:30 PM28 °FSnow flurries. Partly sunny.16 mph69%30.10 "Hg20 mi
11:30 AM27 °FSnow flurries. Overcast.12 mph86%30.11 "Hg15 mi
10:30 AM28 °FSnow flurries. Partly sunny.14 mph64%30.10 "Hg15 mi
9:30 AM27 °FPartly sunny.13 mph69%30.09 "Hg20 mi
8:30 AM27 °FPartly sunny.13 mph74%30.07 "Hg15 mi
7:30 AM25 °FLight snow. Partly sunny.10 mph93%30.05 "Hg15 mi
6:30 AM25 °FLight snow. Partly cloudy.10 mph93%30.03 "Hg15 mi
5:30 AM25 °FLight snow. Partly cloudy.9 mph93%30.02 "Hg12 mi
4:30 AM25 °FLight snow. Partly cloudy.9 mph86%30.01 "Hg12 mi
3:30 AM25 °FLight snow. Mostly cloudy.9 mph93%29.99 "Hg10 mi
2:30 AM25 °FLight snow. Mostly cloudy.9 mph93%29.99 "Hg12 mi
1:30 AM25 °FLight snow. Mostly cloudy.8 mph93%29.98 "Hg12 mi
12:30 AM25 °FLight snow. Mostly cloudy.10 mph93%29.96 "Hg12 mi
11:30 PM
Sat, Apr 18
25 °FLight snow. Mostly cloudy.8 mph93%29.95 "Hg10 mi
10:30 PM25 °FLight snow. Mostly cloudy.9 mph93%29.94 "Hg8 mi
9:30 PM25 °FLight snow. Mostly cloudy.10 mph93%29.92 "Hg10 mi
8:30 PM27 °FLight snow. Mostly cloudy.13 mph93%29.88 "Hg3 mi
7:30 PM27 °FLight snow. Cloudy.13 mph93%29.86 "Hg3 mi
6:30 PM28 °FLight snow. Broken clouds.13 mph86%29.83 "Hg10 mi
5:30 PM28 °FLight snow. Mostly cloudy.14 mph93%29.80 "Hg2 mi
4:30 PM28 °FLight snow. Mostly cloudy.14 mph93%29.76 "Hg2 mi
3:30 PM30 °FLight snow. Mostly cloudy.16 mph86%29.73 "Hg2 mi
3:20 PM30 °FLight snow. Mostly cloudy.16 mph86%29.72 "Hg2 mi
Weather by CustomWeather, © 2015

See weather overviewHow to use our weather pages